Regional Weather Roundup
Issued by NWS

Home | Current Version | Previous Version | Graphics & Text | Print | Product List | Glossary On
Versions: 1 2 3 4 5 6 7 8 9 10 11 12 13 14 15 16 17 18 19 20 21 22 23 24 25 26 27 28 29 30 31 32 33 34 35 36 37 38 39 40 41 42 43 44 45 46 47 48 49 50
000
ASUS45 KCYS 011210
RWRWY

WYOMING REGIONAL WEATHER ROUNDUP
NATIONAL WEATHER SERVICE CHEYENNE WY
600 AM MDT WED JUL 01 2015

NOTE:  "FAIR" INDICATES FEW OR NO CLOUDS BELOW 12,000 FEET
WITH NO SIGNIFICANT WEATHER AND/OR OBSTRUCTIONS TO VISIBILITY.

WYZ001-011300-
YELLOWSTONE NATIONAL PARK

CITY           SKY/WX    TMP DP  RH WIND       PRES   REMARKS
LK YELLOWSTONE   N/A     49  45  86 CALM      30.35S
6HR MIN TEMP:  47; 6HR MAX TEMP:  54;

W YELLOWSTONE  NOT AVBL

$$
WYZ002>013-054>058-071-098>099-011300-
NORTHERN WYOMING

CITY           SKY/WX    TMP DP  RH WIND       PRES   REMARKS
JACKSON        FAIR      48  46  93 CALM      30.26R
CODY           FAIR      61  48  63 SW5       30.13S
GREYBULL       FAIR      65  49  56 CALM      30.04S
6HR MIN TEMP:  63; 6HR MAX TEMP:  77;

WORLAND        FAIR      59  56  89 CALM      30.06R
6HR MIN TEMP:  58; 6HR MAX TEMP:  74;

SHERIDAN       FAIR      59  50  72 CALM      30.07S
6HR MIN TEMP:  57; 6HR MAX TEMP:  73;

BUFFALO        FAIR      62  47  57 W8        30.14R
6HR MIN TEMP:  59; 6HR MAX TEMP:  72;

GILLETTE       FAIR      61  50  67 CALM      30.07S
6HR MIN TEMP:  56; 6HR MAX TEMP:  66;

HULETT         FAIR      61  54  77 S9        30.07S
NEWCASTLE      FAIR      61  52  72 N7        30.06R

$$
WYZ014>020-022>026-101>103-011300-
CENTRAL WYOMING

CITY           SKY/WX    TMP DP  RH WIND       PRES   REMARKS
BIG PINEY      FAIR      52  46  80 CALM      30.29R
6HR MIN TEMP:  52; 6HR MAX TEMP:  63;

PINEDALE       FAIR      48  46  93 CALM      30.30S
DUBOIS         FAIR      54  43  66 W7        30.29R
LANDER         FAIR      63  50  62 CALM      30.16R
6HR MIN TEMP:  58; 6HR MAX TEMP:  66;

RIVERTON       FAIR      62  53  72 W6        30.16S
6HR MIN TEMP:  59; 6HR MAX TEMP:  68;

CASPER         FAIR      59  52  77 W7        30.15S
6HR MIN TEMP:  57; 6HR MAX TEMP:  63;

DOUGLAS        FAIR      58  54  86 N6        30.13R
6HR MIN TEMP:  58; 6HR MAX TEMP:  63;


$$
WYZ021-027>030-104>119-011300-
SOUTHERN WYOMING

CITY           SKY/WX    TMP DP  RH WIND       PRES   REMARKS
EVANSTON       FAIR      63  46  54 SW6       30.29R
6HR MIN TEMP:  62; 6HR MAX TEMP:  72;

KEMMERER       FAIR      61  46  59 NW7       30.30S
FORT BRIDGER   MOSUNNY   68  46  45 W5        30.30S
ROCK SPRINGS   FAIR      60  51  72 SW8       30.25S
6HR MIN TEMP:  57; 6HR MAX TEMP:  63;

DIXON          FAIR      55  51  85 CALM      30.28R
RAWLINS        FAIR      53  51  93 N5        30.26S
6HR MIN TEMP:  53; 6HR MAX TEMP:  59;

SARATOGA       FAIR      54  50  87 S3        30.29R
LARAMIE        FAIR      51  49  92 E3        30.29R
6HR MIN TEMP:  50; 6HR MAX TEMP:  60;

CHEYENNE       FAIR      63  51  65 NW12      30.18R
6HR MIN TEMP:  59; 6HR MAX TEMP:  65;

TORRINGTON     FAIR      66  57  72 NW10      30.03R
6HR MIN TEMP:  61; 6HR MAX TEMP:  70;

PINE BLUFFS    FAIR      57  54  88 CALM      30.12R

$$



USA.gov is the U.S. government's official web portal to all federal, state and local government web resources and services.